Cloud_Cover
80 80 80 80 80 88 88 88 88 88 88 88 88 88 88 88 88 80 76 68 68 56 48 36 36 44 44 36 44 44 44 36 36 32 32 32 24 24 20 20 12 12 20 20 24 24 24 20 20 20 20 20 20 20 20 20 20 12 12 12 12 8 8 8 8 8 8 20 20
88 88 88 88 88 88 88 88 88 88 88 88 88 80 80 80 80 76 68 64 64 56 48 44 48 48 56 56 48 44 36 32 32 32 32 24 20 20 12 12 12 20 24 24 24 24 20 20 20 20 20 20 20 20 20 12 12 12 12 12 8 8 8 8 8 8 8 20 12
88 88 92 92 88 88 88 88 88 88 80 76 76 76 76 76 68 68 64 64 64 56 48 56 56 56 56 56 48 36 32 32 32 24 24 20 12 12 12 12 20 24 24 20 20 20 20 20 20 20 20 20 20 20 12 12 12 12 8 8 8 8 8 8 8 8 12 20 8
88 88 88 88 88 88 88 88 88 76 68 68 68 68 68 68 64 64 64 64 64 56 56 56 56 48 48 44 32 32 32 24 24 20 20 12 12 20 20 24 24 24 24 20 20 20 20 20 20 20 20 12 12 12 12 12 12 12 20 12 12 12 8 8 8 8 12 12 8
88 88 88 88 88 80 68 64 56 56 64 64 64 64 64 64 56 48 48 64 64 56 56 44 36 36 32 32 32 32 24 24 20 20 20 20 20 24 24 24 20 20 20 20 20 20 20 20 20 20 12 12 12 12 12 12 24 24 20 20 20 20 20 12 12 8 0 8 12
68 64 64 56 56 48 48 48 48 56 56 64 64 56 56 48 44 48 56 56 48 44 36 32 32 32 32 32 32 24 24 20 20 20 24 24 24 24 20 20 20 20 20 20 20 20 20 20 20 12 12 20 20 20 24 24 24 24 24 20 24 24 24 20 20 12 12 12 12
64 64 64 48 44 44 44 48 48 48 48 56 48 44 44 36 44 44 36 36 32 32 32 32 32 32 32 32 32 24 24 24 24 24 24 24 24 20 20 20 20 20 20 20 20 20 12 12 20 20 20 20 24 24 20 20 24 12 20 44 44 44 44 44 44 36 32 24 36
56 48 44 44 44 44 44 44 56 48 44 36 36 32 36 44 36 32 32 24 32 32 32 32 32 32 32 32 32 32 32 24 24 24 20 20 20 20 12 12 20 20 20 20 12 12 12 12 20 20 20 20 20 12 12 12 8 8 20 44 48 48 56 56 48 56 64 56 20
44 44 44 48 48 48 48 48 48 48 48 44 36 36 36 36 32 32 32 32 32 32 32 32 32 32 32 32 24 24 24 24 20 20 20 12 12 12 12 12 12 12 12 12 12 12 20 24 24 24 24 24 20 12 8 8 8 8 12 24 32 44 48 56 56 48 36 32 48
36 36 44 44 44 44 44 44 44 44 36 36 36 36 36 44 36 36 32 32 32 32 32 32 24 24 24 24 24 24 20 20 12 12 12 12 12 12 12 12 12 12 12 12 20 24 24 32 32 32 32 32 24 20 12 12 12 20 20 24 32 44 56 48 44 36 36 64 76
36 36 36 36 36 36 36 36 36 36 36 36 36 36 36 36 36 32 32 32 32 24 24 24 24 24 24 24 20 20 20 12 12 8 8 8 12 12 12 12 12 12 20 24 24 24 32 36 36 36 32 32 24 24 20 12 32 36 36 44 48 56 64 56 48 44 56 80 88
36 36 36 36 36 36 36 36 36 36 32 36 36 36 36 32 32 32 24 24 24 24 24 24 24 20 20 12 12 12 8 8 8 8 8 12 12 12 12 12 12 20 20 20 24 24 32 36 36 36 36 32 24 24 24 24 44 56 64 64 68 68 68 64 68 80 92 92 92
32 32 32 32 32 32 32 32 32 24 24 24 24 24 24 24 24 24 24 24 24 24 20 20 12 12 12 8 8 8 8 8 8 8 12 12 12 12 12 12 12 20 20 20 20 24 32 36 44 44 36 32 32 24 32 44 64 68 76 80 76 68 68 76 80 92 92 92 92
24 24 24 24 24 24 24 20 20 20 20 20 20 20 20 20 20 20 20 20 20 20 12 12 8 8 8 8 8 8 8 8 8 8 12 12 12 12 12 12 12 20 20 20 20 24 32 36 44 36 36 36 32 32 36 64 68 80 88 80 80 68 68 80 92 92 92 92 92
20 20 20 20 20 20 20 20 20 12 12 12 20 20 20 20 20 20 20 20 12 12 8 8 0 0 0 8 8 8 8 8 8 12 12 12 12 12 12 12 20 20 20 20 24 32 32 36 36 36 36 36 36 44 56 68 80 88 88 80 68 64 68 88 92 92 92 92 92
20 20 12 20 20 12 12 12 12 12 12 12 12 12 20 20 20 20 12 12 8 8 0 0 0 0 8 8 8 8 12 12 12 12 12 12 12 12 12 20 20 24 32 32 32 32 36 44 44 36 36 44 48 64 76 68 76 80 80 80 68 76 80 92 92 92 92 92 92
20 12 12 12 12 12 12 12 12 12 12 12 12 12 20 20 20 12 8 8 0 0 0 0 8 8 8 8 8 8 12 8 8 8 12 12 12 12 12 20 24 32 36 36 36 36 44 44 44 36 36 36 56 68 68 68 76 76 80 92 88 92 92 92 92 92 92 92 92
12 12 12 8 8 8 8 8 8 8 12 12 12 12 12 12 12 8 0 8 0 0 0 8 8 8 8 8 8 8 8 8 8 8 8 12 12 20 24 32 36 44 48 44 44 36 36 36 36 36 44 44 76 80 76 80 88 88 92 92 92 92 92 92 92 92 92 92 92
8 8 8 8 8 8 8 8 8 8 8 8 8 12 12 12 8 8 0 8 0 0 0 0 8 8 8 8 8 0 8 8 8 8 8 8 20 32 36 44 44 44 44 44 44 44 44 48 48 56 64 68 88 92 92 92 92 92 92 92 92 92 92 92 92 92 92 92 92
8 8 8 8 8 8 8 8 8 8 8 8 8 8 8 8 0 0 0 8 8 8 0 0 0 0 0 0 0 0 8 8 8 8 8 8 20 32 36 36 36 44 44 48 48 56 64 64 76 80 88 92 92 92 92 92 92 92 92 92 92 92 92 92 92 92 92 92 92
8 8 8 8 8 8 8 8 8 8 8 8 8 8 0 0 0 8 8 12 8 8 8 0 0 0 0 0 0 8 8 8 8 8 8 8 12 20 24 32 36 44 48 64 64 68 80 88 92 92 92 92 92 92 92 92 92 92 92 92 92 92 92 92 92 92 92 92 92
8 8 8 8 8 8 8 0 0 8 8 8 0 0 0 8 12 20 12 8 8 0 0 0 0 0 0 0 0 0 0 0 8 8 8 8 8 12 20 24 32 44 56 68 68 68 76 92 92 92 92 92 92 92 92 92 92 92 92 92 92 92 92 92 92 92 92 92 88
8 8 8 12 12 12 12 12 8 8 0 0 0 12 20 20 20 20 12 0 0 0 0 0 0 0 0 0 0 0 0 0 8 8 8 8 8 12 24 56 64 64 68 76 76 80 80 88 92 92 92 92 92 92 92 92 92 92 92 92 92 92 92 92 92 92 92 92 92
12 12 12 12 12 12 12 20 12 8 0 0 12 20 24 20 20 12 12 0 0 0 0 0 0 0 0 0 0 8 8 8 8 8 8 8 8 12 24 76 76 76 80 88 80 80 80 80 80 88 92 92 92 92 92 92 92 92 92 92 92 92 92 92 92 92 92 92 92
12 12 12 12 12 20 24 24 12 8 8 12 12 20 20 20 20 12 8 0 0 0 0 0 0 0 0 0 8 8 8 8 12 12 12 8 8 12 24 44 68 80 80 80 76 80 80 80 80 92 92 92 92 92 92 92 92 92 92 92 92 92 92 92 80 88 92 92 92
8 8 8 8 12 20 24 20 8 8 8 12 12 12 12 12 8 0 0 0 0 0 0 0 0 0 0 8 8 12 12 12 12 12 12 12 12 20 32 32 64 76 76 80 80 88 92 92 92 92 92 92 92 92 92 92 92 92 92 92 92 92 92 88 88 88 92 92 92
8 8 8 8 12 20 20 12 8 8 12 20 20 20 12 8 0 0 0 0 0 0 0 0 8 8 8 8 12 12 12 20 12 20 20 12 20 24 32 48 44 48 68 92 92 92 92 92 92 92 92 92 92 92 92 92 92 92 92 92 92 92 92 92 92 92 92 92 92
12 12 8 8 12 12 8 8 32 44 48 44 36 32 20 12 8 0 0 0 8 8 8 8 8 8 8 8 12 12 20 24 20 24 24 32 24 36 56 64 56 48 56 92 92 92 92 92 92 92 92 92 92 92 92 92 92 92 92 92 92 92 92 92 92 92 92 92 92
20 32 36 36 24 12 20 48 80 92 88 80 76 76 68 64 56 44 36 32 20 20 12 12 12 12 12 20 24 24 20 32 36 32 20 36 44 64 80 80 88 92 92 92 92 92 92 92 92 92 92 92 92 92 92 92 92 92 92 92 92 92 92 92 92 92 92 92 92
48 48 64 76 64 64 68 92 92 80 68 64 56 64 80 92 88 80 68 48 32 20 12 12 12 8 12 20 32 24 20 12 32 44 56 68 88 92 92 92 92 92 92 92 92 92 92 92 92 92 92 92 92 92 92 92 92 92 92 88 92 92 92 92 92 92 92 92 92
76 68 64 48 80 88 80 92 76 68 56 48 56 64 68 76 76 76 64 36 20 12 12 20 20 20 20 24 24 20 12 8 48 76 92 92 92 92 92 92 92 92 92 92 92 92 92 92 92 92 92 92 92 92 92 92 92 92 92 88 92 92 92 92 92 92 92 92 88
88 80 76 76 64 44 36 68 64 56 48 48 56 64 76 92 76 64 44 32 20 12 12 20 24 24 20 20 12 12 20 36 76 92 92 92 92 92 92 92 92 92 92 92 92 92 92 92 92 92 92 92 92 92 92 92 88 92 92 92 92 92 92 92 92 92 92 92 92
92 92 92 88 68 56 48 64 56 44 36 36 56 68 80 88 80 64 36 24 12 12 12 8 20 20 20 24 24 56 92 92 92 92 92 92 92 92 92 92 92 92 92 92 92 92 92 92 92 92 92 100 92 92 92 92 92 92 92 92 92 92 92 92 92 92 92 92 92
92 92 92 92 88 76 64 76 92 80 56 36 64 80 92 92 88 64 36 12 12 12 12 12 24 24 44 92 92 92 92 92 92 92 92 92 92 92 92 92 92 92 92 92 92 92 92 92 92 92 92 92 92 92 92 92 92 92 92 92 92 92 92 92 92 92 88 88 92
92 92 92 92 92 80 68 80 92 92 88 64 68 76 80 92 88 64 36 20 12 12 24 36 80 92 92 92 92 92 92 92 92 92 92 92 92 92 92 92 92 92 92 92 92 92 92 92 92 92 92 92 92 92 92 92 92 92 92 92 92 92 92 92 92 92 92 92 92
92 92 92 92 88 76 76 92 92 92 80 68 80 88 92 92 88 88 80 36 36 48 76 92 92 92 92 92 92 92 92 92 92 92 92 92 92 92 92 92 92 92 92 92 92 92 92 92 92 92 92 92 92 92 92 92 92 92 92 92 92 92 92 92 92 92 92 92 92
92 92 92 92 92 88 80 92 92 80 68 64 64 68 80 92 92 92 88 68 88 92 92 100 92 92 92 92 92 92 92 92 92 92 92 92 92 92 92 92 92 92 92 92 92 92 92 92 92 92 92 92 92 92 92 92 92 92 92 88 92 92 92 92 92 92 92 92 92
92 92 92 92 88 80 80 92 92 76 56 48 56 68 76 88 92 88 80 92 92 92 92 92 92 92 92 92 92 92 92 92 92 92 92 92 92 92 92 92 92 92 92 92 92 92 92 92 92 92 92 92 92 92 92 92 92 92 92 92 92 92 92 92 92 92 92 92 92
92 92 92 92 88 80 80 92 92 64 44 48 56 68 80 92 92 92 88 92 92 92 92 92 92 92 92 92 92 92 92 92 92 92 92 92 92 92 92 92 92 92 92 92 92 92 92 92 92 92 92 92 92 92 92 92 92 92 92 92 92 92 92 92 92 92 92 92 92
92 92 92 88 80 80 88 92 76 48 36 56 64 68 80 88 80 80 80 92 92 92 92 92 92 92 100 100 100 92 92 92 92 92 92 92 92 92 92 92 92 92 92 92 92 92 92 92 92 92 92 92 92 92 92 92 92 92 92 92 92 92 92 92 92 92 92 92 92
68 80 88 80 88 88 80 88 64 56 56 68 68 76 76 68 56 64 76 88 92 92 92 92 92 92 92 92 92 92 92 92 92 92 92 92 92 92 92 92 92 92 92 92 92 92 92 92 92 92 92 92 92 92 92 92 92 92 92 92 92 92 92 92 92 92 92 92 92